World > North America > United States > Ohio

Williamsburg, Ohio Regional Weather

Lat: 39.05N, Lon: 84.05W
Wx Zone: OHZ078Web Search
Williamsburg Weather Warning NWS WEATHER ALERT FOR THE WILLIAMSBURG, OH AREA - HARD FROST ADVISORY Issued: 906 PM EDT Fri May 7 2021 Williamsburg Weather Warning  

Pass this page to a friend. Tell them to point their camera at the QR Code near the bottom of this page.

Feedback


°F Click to change Williamsburg hourly weather to Imperial units.Click to change Williamsburg hourly weather to Metric units. °C
Williamsburg Weather Map
UTC Time: 5/8/2021, 01:29
Your Time:

Williamsburg, OH Regional Weather

Expires:202105080200;;761613
ASUS41 KCLE 080112
RWRCLE
OHIO REGIONAL WEATHER ROUNDUP
NATIONAL WEATHER SERVICE WILMINGTON, OH
900 PM EDT FRI MAY 07 2021

NOTE: "FAIR" INDICATES FEW OR NO CLOUDS BELOW 12,000 FEET WITH NO
SIGNIFICANT WEATHER AND/OR OBSTRUCTIONS TO VISIBILITY.


OHZ042-051>053-060>062-070>072-077>081-080200-
  SOUTHWEST OHIO
  
CITY           SKY/WX    TMP DP  RH WIND       PRES   REMARKS
CINC-COVINGTON TSTM      50  45  83 W5        29.93F                  
CINC-LUNKEN    LGT RAIN  51  48  89 SW6       29.95S                  
HAMILTON       CLOUDY    50  48  93 CALM      29.94S                  
DAYTON         LGT RAIN  49  41  74 NW8       29.95R                  
WRIGHT-PAT AFB LGT RAIN  50  45  83 W9        29.93R                  
DAYTON GENERAL MOCLDY    50  44  80 W5        29.92S                  
WILMINGTON     MOCLDY    47  44  90 SW3       29.92F                  
$$


SKY/WX - Weather  TMP - Temperature  DP - Dew Point  RH - Relative Humidity
WIND - Wind Direction/Speed PRES - Barometric Pressure VSB - Visibility
WCI - Wind Chill Index E13G22 Wind - East Wind 13 mph/Gusts of 22 mph